| time (UTC) | temp C | wind direction | speed KPH | gust KPH | rain 1hr cm | rain 24hr cm | rain mn cm | humidity % | barometer mb |
| 20260507135112 | 13 | 0 | 0.0 | 0.0 | 0.00 | 0.00 | 0.00 | 10 | 990.1 |
| 20260507134607 | 13 | 0 | 0.0 | 0.0 | 0.00 | 0.00 | 0.00 | 10 | 990.2 |
| 20260507134103 | 12 | 0 | 0.0 | 0.0 | 0.00 | 0.00 | 0.00 | 10 | 990.2 |
| 20260507133559 | 12 | 0 | 0.0 | 0.0 | 0.00 | 0.00 | 0.00 | 10 | 990.2 |
| 20260507132553 | 13 | 0 | 0.0 | 0.0 | 0.00 | 0.00 | 0.00 | 10 | 990.2 |
| 20260507132047 | 13 | 0 | 0.0 | 0.0 | 0.00 | 0.00 | 0.00 | 10 | 990.2 |
| 20260507131543 | 13 | 0 | 0.0 | 0.0 | 0.00 | 0.00 | 0.00 | 10 | 990.3 |
| 20260507131039 | 12 | 0 | 0.0 | 0.0 | 0.00 | 0.00 | 0.00 | 10 | 990.2 |
| 20260507130032 | 12 | 0 | 0.0 | 0.0 | 0.00 | 0.00 | 0.00 | 10 | 990.1 |
| 20260507125527 | 12 | 0 | 0.0 | 0.0 | 0.00 | 0.00 | 0.00 | 10 | 990.2 |
| 20260507125023 | 12 | 0 | 0.0 | 0.0 | 0.00 | 0.00 | 0.00 | 10 | 990.2 |
| 20260507124519 | 12 | 0 | 0.0 | 0.0 | 0.00 | 0.00 | 0.00 | 10 | 990.2 |
| 20260507124016 | 12 | 0 | 0.0 | 0.0 | 0.00 | 0.00 | 0.00 | 10 | 990.2 |
| 20260507123512 | 13 | 0 | 0.0 | 0.0 | 0.00 | 0.00 | 0.00 | 10 | 990.0 |
| 20260507123008 | 13 | 0 | 0.0 | 0.0 | 0.00 | 0.00 | 0.00 | 10 | 990.0 |
| 20260507122504 | 12 | 0 | 0.0 | 0.0 | 0.00 | 0.00 | 0.00 | 10 | 989.9 |
| 20260507122000 | 13 | 0 | 0.0 | 0.0 | 0.00 | 0.00 | 0.00 | 10 | 989.9 |
| 20260507121456 | 13 | 0 | 0.0 | 0.0 | 0.00 | 0.00 | 0.00 | 10 | 989.9 |
| 20260507120952 | 14 | 0 | 0.0 | 0.0 | 0.00 | 0.00 | 0.00 | 10 | 989.9 |
| 20260507120448 | 13 | 0 | 0.0 | 0.0 | 0.00 | 0.00 | 0.00 | 10 | 989.9 |
| 20260507115944 | 13 | 0 | 0.0 | 0.0 | 0.00 | 0.00 | 0.00 | 10 | 990.0 |
| 20260507115440 | 13 | 0 | 0.0 | 0.0 | 0.00 | 0.00 | 0.00 | 10 | 989.9 |
| 20260507114936 | 14 | 0 | 0.0 | 0.0 | 0.00 | 0.00 | 0.00 | 10 | 989.9 |
| 20260507114432 | 15 | 0 | 0.0 | 0.0 | 0.00 | 0.00 | 0.00 | 10 | 989.8 |
| 20260507113928 | 15 | 0 | 0.0 | 0.0 | 0.00 | 0.00 | 0.00 | 10 | 989.8 |
| 20260507113424 | 13 | 0 | 0.0 | 0.0 | 0.00 | 0.00 | 0.00 | 10 | 990.0 |
| 20260507112920 | 13 | 0 | 0.0 | 0.0 | 0.00 | 0.00 | 0.00 | 10 | 990.0 |
| 20260507112418 | 12 | 0 | 0.0 | 0.0 | 0.00 | 0.00 | 0.00 | 10 | 990.0 |
| 20260507111912 | 12 | 0 | 0.0 | 0.0 | 0.00 | 0.00 | 0.00 | 10 | 990.0 |
| 20260507111408 | 12 | 0 | 0.0 | 0.0 | 0.00 | 0.00 | 0.00 | 10 | 990.0 |
| 20260507110904 | 13 | 0 | 0.0 | 0.0 | 0.00 | 0.00 | 0.00 | 10 | 990.0 |
| 20260507110400 | 13 | 0 | 0.0 | 0.0 | 0.00 | 0.00 | 0.00 | 10 | 990.0 |
| 20260507105856 | 12 | 0 | 0.0 | 0.0 | 0.00 | 0.00 | 0.00 | 10 | 990.0 |
| 20260507105352 | 12 | 0 | 0.0 | 0.0 | 0.00 | 0.00 | 0.00 | 10 | 989.9 |
| 20260507104848 | 13 | 0 | 0.0 | 0.0 | 0.00 | 0.00 | 0.00 | 10 | 990.0 |
| 20260507104344 | 13 | 0 | 0.0 | 0.0 | 0.00 | 0.00 | 0.00 | 10 | 990.0 |
| 20260507103840 | 13 | 0 | 0.0 | 0.0 | 0.00 | 0.00 | 0.00 | 10 | 990.0 |
| 20260507103336 | 13 | 0 | 0.0 | 0.0 | 0.00 | 0.00 | 0.00 | 10 | 990.0 |
| 20260507102832 | 14 | 0 | 0.0 | 0.0 | 0.00 | 0.00 | 0.00 | 10 | 990.0 |
| 20260507102328 | 14 | 0 | 0.0 | 0.0 | 0.00 | 0.00 | 0.00 | 10 | 990.1 |
| 20260507101824 | 13 | 0 | 0.0 | 0.0 | 0.00 | 0.00 | 0.00 | 10 | 990.0 |
| 20260507101320 | 12 | 0 | 0.0 | 0.0 | 0.00 | 0.00 | 0.00 | 10 | 990.0 |
| 20260507100816 | 14 | 0 | 0.0 | 0.0 | 0.00 | 0.00 | 0.00 | 10 | 990.0 |
| 20260507100312 | 13 | 0 | 0.0 | 0.0 | 0.00 | 0.00 | 0.00 | 10 | 990.0 |
| 20260507095809 | 15 | 0 | 0.0 | 0.0 | 0.00 | 0.00 | 0.00 | 10 | 990.0 |
| 20260507095306 | 13 | 0 | 0.0 | 0.0 | 0.00 | 0.00 | 0.00 | 10 | 990.0 |
| 20260507094801 | 16 | 0 | 0.0 | 0.0 | 0.00 | 0.00 | 0.00 | 10 | 990.0 |
| 20260507094257 | 14 | 0 | 0.0 | 0.0 | 0.00 | 0.00 | 0.00 | 10 | 990.0 |
| 20260507093753 | 13 | 0 | 0.0 | 0.0 | 0.00 | 0.00 | 0.00 | 10 | 990.1 |
| 20260507093249 | 12 | 0 | 0.0 | 0.0 | 0.00 | 0.00 | 0.00 | 10 | 990.0 |
| 20260507092745 | 12 | 0 | 0.0 | 0.0 | 0.00 | 0.00 | 0.00 | 10 | 990.0 |
| 20260507092241 | 12 | 0 | 0.0 | 0.0 | 0.00 | 0.00 | 0.00 | 10 | 989.9 |
| 20260507091737 | 12 | 0 | 0.0 | 0.0 | 0.00 | 0.00 | 0.00 | 10 | 989.9 |
| 20260507091233 | 11 | 0 | 0.0 | 0.0 | 0.00 | 0.00 | 0.00 | 10 | 989.8 |
| 20260507090729 | 11 | 0 | 0.0 | 0.0 | 0.00 | 0.00 | 0.00 | 10 | 989.7 |
| 20260507090225 | 12 | 0 | 0.0 | 0.0 | 0.00 | 0.00 | 0.00 | 10 | 989.6 |
| 20260507085721 | 11 | 0 | 0.0 | 0.0 | 0.00 | 0.00 | 0.00 | 10 | 989.5 |
| 20260507085217 | 12 | 0 | 0.0 | 0.0 | 0.00 | 0.00 | 0.00 | 10 | 989.5 |
| 20260507084713 | 11 | 0 | 0.0 | 0.0 | 0.00 | 0.00 | 0.00 | 10 | 989.5 |
| 20260507084212 | 11 | 0 | 0.0 | 0.0 | 0.00 | 0.00 | 0.00 | 10 | 989.5 |
| 20260507083705 | 11 | 0 | 0.0 | 0.0 | 0.00 | 0.00 | 0.00 | 10 | 989.6 |
| 20260507083201 | 11 | 0 | 0.0 | 0.0 | 0.00 | 0.00 | 0.00 | 10 | 989.5 |
| 20260507082657 | 10 | 0 | 0.0 | 0.0 | 0.00 | 0.00 | 0.00 | 10 | 989.5 |
| 20260507082153 | 11 | 0 | 0.0 | 0.0 | 0.00 | 0.00 | 0.00 | 10 | 989.5 |
| 20260507081652 | 11 | 0 | 0.0 | 0.0 | 0.00 | 0.00 | 0.00 | 10 | 989.5 |
| 20260507081145 | 10 | 0 | 0.0 | 0.0 | 0.00 | 0.00 | 0.00 | 10 | 989.5 |
| 20260507080641 | 10 | 0 | 0.0 | 0.0 | 0.00 | 0.00 | 0.00 | 10 | 989.4 |
| 20260507080137 | 10 | 0 | 0.0 | 0.0 | 0.00 | 0.00 | 0.00 | 10 | 989.4 |
| 20260507075633 | 10 | 0 | 0.0 | 0.0 | 0.00 | 0.00 | 0.00 | 10 | 989.4 |
| 20260507075132 | 10 | 0 | 0.0 | 0.0 | 0.00 | 0.00 | 0.00 | 10 | 989.3 |
| 20260507074625 | 10 | 0 | 0.0 | 0.0 | 0.00 | 0.00 | 0.00 | 10 | 989.3 |
| 20260507074121 | 10 | 0 | 0.0 | 0.0 | 0.00 | 0.00 | 0.00 | 10 | 989.2 |
| 20260507073617 | 10 | 0 | 0.0 | 0.0 | 0.00 | 0.00 | 0.00 | 10 | 989.2 |
| 20260507073113 | 10 | 0 | 0.0 | 0.0 | 0.00 | 0.00 | 0.00 | 10 | 989.2 |
| 20260507072612 | 9 | 0 | 0.0 | 0.0 | 0.00 | 0.00 | 0.00 | 10 | 989.1 |
| 20260507072105 | 9 | 0 | 0.0 | 0.0 | 0.00 | 0.00 | 0.00 | 10 | 989.0 |
| 20260507071601 | 10 | 0 | 0.0 | 0.0 | 0.00 | 0.00 | 0.00 | 10 | 989.0 |
| 20260507071058 | 10 | 0 | 0.0 | 0.0 | 0.00 | 0.00 | 0.00 | 10 | 988.9 |
| 20260507070554 | 10 | 0 | 0.0 | 0.0 | 0.00 | 0.00 | 0.00 | 10 | 988.9 |
| 20260507070052 | 10 | 0 | 0.0 | 0.0 | 0.00 | 0.00 | 0.00 | 10 | 988.8 |
| 20260507065546 | 9 | 0 | 0.0 | 0.0 | 0.00 | 0.00 | 0.00 | 10 | 988.9 |
| 20260507065042 | 9 | 0 | 0.0 | 0.0 | 0.00 | 0.00 | 0.00 | 10 | 988.8 |
| 20260507064538 | 9 | 0 | 0.0 | 0.0 | 0.00 | 0.00 | 0.00 | 10 | 988.8 |
| 20260507064034 | 8 | 0 | 0.0 | 0.0 | 0.00 | 0.00 | 0.00 | 10 | 988.8 |
| 20260507063532 | 8 | 0 | 0.0 | 0.0 | 0.00 | 0.00 | 0.00 | 10 | 988.8 |
| 20260507063026 | 8 | 0 | 0.0 | 0.0 | 0.00 | 0.00 | 0.00 | 10 | 988.7 |
| 20260507062522 | 8 | 0 | 0.0 | 0.0 | 0.00 | 0.00 | 0.00 | 10 | 988.7 |
| 20260507062018 | 8 | 0 | 0.0 | 0.0 | 0.00 | 0.00 | 0.00 | 10 | 988.7 |
| 20260507061514 | 8 | 0 | 0.0 | 0.0 | 0.00 | 0.00 | 0.00 | 10 | 988.7 |
| 20260507061012 | 8 | 0 | 0.0 | 0.0 | 0.00 | 0.00 | 0.00 | 10 | 988.7 |
| 20260507060506 | 8 | 0 | 0.0 | 0.0 | 0.00 | 0.00 | 0.00 | 10 | 988.6 |
| 20260507060002 | 8 | 0 | 0.0 | 0.0 | 0.00 | 0.00 | 0.00 | 10 | 988.6 |
| 20260507055458 | 8 | 0 | 0.0 | 0.0 | 0.00 | 0.00 | 0.00 | 10 | 988.5 |
| 20260507054954 | 8 | 0 | 0.0 | 0.0 | 0.00 | 0.00 | 0.00 | 10 | 988.5 |
| 20260507054452 | 8 | 0 | 0.0 | 0.0 | 0.00 | 0.00 | 0.00 | 10 | 988.5 |
| 20260507053946 | 8 | 0 | 0.0 | 0.0 | 0.00 | 0.00 | 0.00 | 10 | 988.4 |
| 20260507053442 | 8 | 0 | 0.0 | 0.0 | 0.00 | 0.00 | 0.00 | 10 | 988.4 |
| 20260507052938 | 8 | 0 | 0.0 | 0.0 | 0.00 | 0.00 | 0.00 | 10 | 988.3 |
| 20260507052434 | 8 | 0 | 0.0 | 0.0 | 0.00 | 0.00 | 0.00 | 10 | 988.3 |
| 20260507051932 | 8 | 0 | 0.0 | 0.0 | 0.00 | 0.00 | 0.00 | 10 | 988.3 |
| 20260507051426 | 8 | 0 | 0.0 | 0.0 | 0.00 | 0.00 | 0.00 | 10 | 988.1 |
| 20260507050922 | 8 | 0 | 0.0 | 0.0 | 0.00 | 0.00 | 0.00 | 10 | 988.1 |
| 20260507050418 | 8 | 0 | 0.0 | 0.0 | 0.00 | 0.00 | 0.00 | 10 | 988.0 |
| 20260507045914 | 7 | 0 | 0.0 | 0.0 | 0.00 | 0.00 | 0.00 | 10 | 987.9 |
| 20260507045412 | 7 | 0 | 0.0 | 0.0 | 0.00 | 0.00 | 0.00 | 10 | 987.9 |
| 20260507044906 | 7 | 0 | 0.0 | 0.0 | 0.00 | 0.00 | 0.00 | 10 | 987.8 |
| 20260507044402 | 7 | 0 | 0.0 | 0.0 | 0.00 | 0.00 | 0.00 | 10 | 987.8 |
| 20260507043858 | 7 | 0 | 0.0 | 0.0 | 0.00 | 0.00 | 0.00 | 10 | 987.8 |
| 20260507043355 | 7 | 0 | 0.0 | 0.0 | 0.00 | 0.00 | 0.00 | 10 | 987.7 |
| 20260507042852 | 7 | 0 | 0.0 | 0.0 | 0.00 | 0.00 | 0.00 | 10 | 987.6 |
| 20260507042347 | 7 | 0 | 0.0 | 0.0 | 0.00 | 0.00 | 0.00 | 10 | 987.6 |
| 20260507041843 | 7 | 0 | 0.0 | 0.0 | 0.00 | 0.00 | 0.00 | 10 | 987.5 |
| 20260507041339 | 7 | 0 | 0.0 | 0.0 | 0.00 | 0.00 | 0.00 | 10 | 987.5 |
| 20260507040835 | 7 | 0 | 0.0 | 0.0 | 0.00 | 0.00 | 0.00 | 10 | 987.4 |
| 20260507040332 | 7 | 0 | 0.0 | 0.0 | 0.00 | 0.00 | 0.00 | 10 | 987.5 |
| 20260507035827 | 7 | 0 | 0.0 | 0.0 | 0.00 | 0.00 | 0.00 | 10 | 987.4 |
| 20260507035323 | 7 | 0 | 0.0 | 0.0 | 0.00 | 0.00 | 0.00 | 10 | 987.4 |
| 20260507034819 | 7 | 0 | 0.0 | 0.0 | 0.00 | 0.00 | 0.00 | 10 | 987.4 |
| 20260507034315 | 7 | 0 | 0.0 | 0.0 | 0.00 | 0.00 | 0.00 | 10 | 987.3 |
| 20260507033812 | 7 | 0 | 0.0 | 0.0 | 0.00 | 0.00 | 0.00 | 10 | 987.2 |
| 20260507033307 | 7 | 0 | 0.0 | 0.0 | 0.00 | 0.00 | 0.00 | 10 | 987.2 |
| 20260507032803 | 7 | 0 | 0.0 | 0.0 | 0.00 | 0.00 | 0.00 | 10 | 987.2 |
| 20260507032259 | 7 | 0 | 0.0 | 0.0 | 0.00 | 0.00 | 0.00 | 10 | 987.2 |
| 20260507031755 | 7 | 0 | 0.0 | 0.0 | 0.00 | 0.00 | 0.00 | 10 | 987.1 |
| 20260507031252 | 7 | 0 | 0.0 | 0.0 | 0.00 | 0.00 | 0.00 | 10 | 987.1 |
| 20260507030747 | 7 | 0 | 0.0 | 0.0 | 0.00 | 0.00 | 0.00 | 10 | 987.1 |
| 20260507030243 | 7 | 0 | 0.0 | 0.0 | 0.00 | 0.00 | 0.00 | 10 | 987.1 |
| 20260507025739 | 7 | 0 | 0.0 | 0.0 | 0.00 | 0.00 | 0.00 | 10 | 987.1 |
| 20260507024732 | 6 | 0 | 0.0 | 0.0 | 0.00 | 0.00 | 0.00 | 10 | 987.1 |
| 20260507024227 | 7 | 0 | 0.0 | 0.0 | 0.00 | 0.00 | 0.00 | 10 | 987.1 |
| 20260507023723 | 7 | 0 | 0.0 | 0.0 | 0.00 | 0.00 | 0.00 | 10 | 987.0 |
| 20260507023219 | 7 | 0 | 0.0 | 0.0 | 0.00 | 0.00 | 0.00 | 10 | 987.0 |
| 20260507022212 | 7 | 0 | 0.0 | 0.0 | 0.00 | 0.00 | 0.00 | 10 | 987.0 |
| 20260507021707 | 6 | 0 | 0.0 | 0.0 | 0.00 | 0.00 | 0.00 | 10 | 986.9 |
| 20260507021203 | 6 | 0 | 0.0 | 0.0 | 0.00 | 0.00 | 0.00 | 10 | 986.8 |
| 20260507020659 | 6 | 0 | 0.0 | 0.0 | 0.00 | 0.00 | 0.00 | 10 | 986.9 |
| 20260507020155 | 6 | 0 | 0.0 | 0.0 | 0.00 | 0.00 | 0.00 | 10 | 986.8 |
| 20260507015652 | 7 | 0 | 0.0 | 0.0 | 0.00 | 0.00 | 0.00 | 10 | 986.8 |
| 20260507015147 | 7 | 0 | 0.0 | 0.0 | 0.00 | 0.00 | 0.00 | 10 | 986.8 |
| 20260507014643 | 6 | 0 | 0.0 | 0.0 | 0.00 | 0.00 | 0.00 | 10 | 986.8 |
| 20260507014140 | 6 | 0 | 0.0 | 0.0 | 0.00 | 0.00 | 0.00 | 10 | 986.8 |
| 20260507013636 | 6 | 0 | 0.0 | 0.0 | 0.00 | 0.00 | 0.00 | 10 | 986.8 |
| 20260507013132 | 6 | 0 | 0.0 | 0.0 | 0.00 | 0.00 | 0.00 | 10 | 986.7 |
| 20260507012628 | 6 | 0 | 0.0 | 0.0 | 0.00 | 0.00 | 0.00 | 10 | 986.6 |
| 20260507012124 | 6 | 0 | 0.0 | 0.0 | 0.00 | 0.00 | 0.00 | 10 | 986.6 |
| 20260507011620 | 6 | 0 | 0.0 | 0.0 | 0.00 | 0.00 | 0.00 | 10 | 986.7 |
| 20260507011116 | 6 | 0 | 0.0 | 0.0 | 0.00 | 0.00 | 0.00 | 10 | 986.6 |
| 20260507010612 | 6 | 0 | 0.0 | 0.0 | 0.00 | 0.00 | 0.00 | 10 | 986.6 |
| 20260507010108 | 6 | 0 | 0.0 | 0.0 | 0.00 | 0.00 | 0.00 | 10 | 986.6 |
| 20260507005604 | 6 | 0 | 0.0 | 0.0 | 0.00 | 0.00 | 0.00 | 10 | 986.7 |
| 20260507005100 | 6 | 0 | 0.0 | 0.0 | 0.00 | 0.00 | 0.00 | 10 | 986.8 |
| 20260507004556 | 6 | 0 | 0.0 | 0.0 | 0.00 | 0.00 | 0.00 | 10 | 986.7 |
| 20260507004052 | 6 | 0 | 0.0 | 0.0 | 0.00 | 0.00 | 0.00 | 10 | 986.7 |
| 20260507003548 | 5 | 0 | 0.0 | 0.0 | 0.00 | 0.00 | 0.00 | 10 | 986.6 |
| 20260507003044 | 5 | 0 | 0.0 | 0.0 | 0.00 | 0.00 | 0.00 | 10 | 986.5 |
| 20260507002540 | 6 | 0 | 0.0 | 0.0 | 0.00 | 0.00 | 0.00 | 10 | 986.5 |
| 20260507002036 | 6 | 0 | 0.0 | 0.0 | 0.00 | 0.00 | 0.00 | 10 | 986.5 |
| 20260507001532 | 6 | 0 | 0.0 | 0.0 | 0.00 | 0.00 | 0.00 | 10 | 986.5 |
| 20260507001028 | 5 | 0 | 0.0 | 0.0 | 0.00 | 0.00 | 0.00 | 10 | 986.5 |
| 20260507000524 | 6 | 0 | 0.0 | 0.0 | 0.00 | 0.00 | 0.00 | 10 | 986.4 |
| 20260507000020 | 6 | 0 | 0.0 | 0.0 | 0.00 | 0.00 | 0.00 | 10 | 986.4 |
| 20260506235516 | 6 | 0 | 0.0 | 0.0 | 0.00 | 0.00 | 0.00 | 10 | 986.5 |
| 20260506235012 | 6 | 0 | 0.0 | 0.0 | 0.00 | 0.00 | 0.00 | 10 | 986.5 |
| 20260506234508 | 6 | 0 | 0.0 | 0.0 | 0.00 | 0.00 | 0.00 | 10 | 986.4 |
| 20260506234004 | 6 | 0 | 0.0 | 0.0 | 0.00 | 0.00 | 0.00 | 10 | 986.5 |
| 20260506233500 | 6 | 0 | 0.0 | 0.0 | 0.00 | 0.00 | 0.00 | 10 | 986.5 |
| 20260506232956 | 6 | 0 | 0.0 | 0.0 | 0.00 | 0.00 | 0.00 | 10 | 986.4 |
| 20260506232452 | 6 | 0 | 0.0 | 0.0 | 0.00 | 0.00 | 0.00 | 10 | 986.6 |
| 20260506231948 | 6 | 0 | 0.0 | 0.0 | 0.00 | 0.00 | 0.00 | 10 | 986.6 |
| 20260506231444 | 6 | 0 | 0.0 | 0.0 | 0.00 | 0.00 | 0.00 | 10 | 986.6 |
| 20260506230940 | 6 | 0 | 0.0 | 0.0 | 0.00 | 0.00 | 0.00 | 10 | 986.6 |
| 20260506230436 | 6 | 0 | 0.0 | 0.0 | 0.00 | 0.00 | 0.00 | 10 | 986.5 |
| 20260506225933 | 6 | 0 | 0.0 | 0.0 | 0.00 | 0.00 | 0.00 | 10 | 986.5 |
| 20260506225429 | 7 | 0 | 0.0 | 0.0 | 0.00 | 0.00 | 0.00 | 10 | 986.5 |
| 20260506224925 | 7 | 0 | 0.0 | 0.0 | 0.00 | 0.00 | 0.00 | 10 | 986.6 |
| 20260506224421 | 7 | 0 | 0.0 | 0.0 | 0.00 | 0.00 | 0.00 | 10 | 986.6 |
| 20260506224001 | 7 | 0 | 0.0 | 0.0 | 0.00 | 0.00 | 0.00 | 10 | 986.6 |
| 20260506223413 | 7 | 0 | 0.0 | 0.0 | 0.00 | 0.00 | 0.00 | 10 | 986.5 |
| 20260506222909 | 7 | 0 | 0.0 | 0.0 | 0.00 | 0.00 | 0.00 | 10 | 986.4 |
| 20260506222405 | 7 | 0 | 0.0 | 0.0 | 0.00 | 0.00 | 0.00 | 10 | 986.4 |
| 20260506221901 | 7 | 0 | 0.0 | 0.0 | 0.00 | 0.00 | 0.00 | 10 | 986.3 |
| 20260506221357 | 7 | 0 | 0.0 | 0.0 | 0.00 | 0.00 | 0.00 | 10 | 986.1 |
| 20260506220853 | 7 | 0 | 0.0 | 0.0 | 0.00 | 0.00 | 0.00 | 10 | 986.2 |
| 20260506220349 | 7 | 0 | 0.0 | 0.0 | 0.00 | 0.00 | 0.00 | 10 | 986.1 |
| 20260506215845 | 7 | 0 | 0.0 | 0.0 | 0.00 | 0.00 | 0.00 | 10 | 986.1 |
| 20260506215341 | 7 | 0 | 0.0 | 0.0 | 0.00 | 0.00 | 0.00 | 10 | 986.1 |
| 20260506214837 | 7 | 0 | 0.0 | 0.0 | 0.00 | 0.00 | 0.00 | 10 | 986.0 |
| 20260506214333 | 8 | 0 | 0.0 | 0.0 | 0.00 | 0.00 | 0.00 | 10 | 985.9 |
| 20260506213832 | 8 | 0 | 0.0 | 0.0 | 0.00 | 0.00 | 0.00 | 10 | 985.9 |
| 20260506213325 | 8 | 0 | 0.0 | 0.0 | 0.00 | 0.00 | 0.00 | 10 | 985.9 |
| 20260506212821 | 8 | 0 | 0.0 | 0.0 | 0.00 | 0.00 | 0.00 | 10 | 985.9 |
| 20260506212317 | 8 | 0 | 0.0 | 0.0 | 0.00 | 0.00 | 0.00 | 10 | 985.8 |
| 20260506211813 | 8 | 0 | 0.0 | 0.0 | 0.00 | 0.00 | 0.00 | 10 | 985.8 |
| 20260506211312 | 8 | 0 | 0.0 | 0.0 | 0.00 | 0.00 | 0.00 | 10 | 985.9 |
| 20260506210805 | 8 | 0 | 0.0 | 0.0 | 0.00 | 0.00 | 0.00 | 10 | 985.8 |
| 20260506210301 | 8 | 0 | 0.0 | 0.0 | 0.00 | 0.00 | 0.00 | 10 | 985.8 |
| 20260506205757 | 8 | 0 | 0.0 | 0.0 | 0.00 | 0.00 | 0.00 | 10 | 985.9 |
| 20260506205253 | 8 | 0 | 0.0 | 0.0 | 0.00 | 0.00 | 0.00 | 10 | 985.9 |
| 20260506204752 | 8 | 0 | 0.0 | 0.0 | 0.00 | 0.00 | 0.00 | 10 | 985.9 |
| 20260506204245 | 8 | 0 | 0.0 | 0.0 | 0.00 | 0.00 | 0.00 | 10 | 985.8 |
| 20260506203741 | 8 | 0 | 0.0 | 0.0 | 0.00 | 0.00 | 0.00 | 10 | 985.9 |
| 20260506203237 | 8 | 0 | 0.0 | 0.0 | 0.00 | 0.00 | 0.00 | 10 | 985.9 |
| 20260506202733 | 8 | 0 | 0.0 | 0.0 | 0.00 | 0.00 | 0.00 | 10 | 985.8 |
| 20260506202232 | 8 | 0 | 0.0 | 0.0 | 0.00 | 0.00 | 0.00 | 10 | 985.7 |
| 20260506201725 | 9 | 0 | 0.0 | 0.0 | 0.00 | 0.00 | 0.00 | 10 | 985.7 |
| 20260506201221 | 9 | 0 | 0.0 | 0.0 | 0.00 | 0.00 | 0.00 | 10 | 985.6 |
| 20260506200718 | 9 | 0 | 0.0 | 0.0 | 0.00 | 0.00 | 0.00 | 10 | 985.7 |
| 20260506200214 | 9 | 0 | 0.0 | 0.0 | 0.00 | 0.00 | 0.00 | 10 | 985.7 |
| 20260506195712 | 9 | 0 | 0.0 | 0.0 | 0.00 | 0.00 | 0.00 | 10 | 985.7 |
| 20260506195206 | 9 | 0 | 0.0 | 0.0 | 0.00 | 0.00 | 0.00 | 10 | 985.6 |
| 20260506194702 | 9 | 0 | 0.0 | 0.0 | 0.00 | 0.00 | 0.00 | 10 | 985.4 |
| 20260506194158 | 9 | 0 | 0.0 | 0.0 | 0.00 | 0.00 | 0.00 | 10 | 985.5 |
| 20260506193654 | 9 | 0 | 0.0 | 0.0 | 0.00 | 0.00 | 0.00 | 10 | 985.3 |
| 20260506193152 | 10 | 0 | 0.0 | 0.0 | 0.00 | 0.00 | 0.00 | 10 | 985.3 |
| 20260506192646 | 10 | 0 | 0.0 | 0.0 | 0.00 | 0.00 | 0.00 | 10 | 985.3 |
| 20260506192142 | 10 | 0 | 0.0 | 0.0 | 0.00 | 0.00 | 0.00 | 10 | 985.1 |
| 20260506191638 | 10 | 0 | 0.0 | 0.0 | 0.00 | 0.00 | 0.00 | 10 | 985.0 |
| 20260506191134 | 10 | 0 | 0.0 | 0.0 | 0.00 | 0.00 | 0.00 | 10 | 984.9 |
| 20260506190632 | 10 | 0 | 0.0 | 0.0 | 0.00 | 0.00 | 0.00 | 10 | 984.9 |
| 20260506190126 | 10 | 0 | 0.0 | 0.0 | 0.00 | 0.00 | 0.00 | 10 | 984.9 |
| 20260506185622 | 10 | 0 | 0.0 | 0.0 | 0.00 | 0.00 | 0.00 | 10 | 984.9 |
| 20260506185118 | 10 | 0 | 0.0 | 0.0 | 0.00 | 0.00 | 0.00 | 10 | 984.9 |
| 20260506184614 | 10 | 0 | 0.0 | 0.0 | 0.00 | 0.00 | 0.00 | 10 | 984.7 |
| 20260506184112 | 10 | 0 | 0.0 | 0.0 | 0.00 | 0.00 | 0.00 | 10 | 984.7 |
| 20260506183606 | 10 | 0 | 0.0 | 0.0 | 0.00 | 0.00 | 0.00 | 10 | 984.7 |
| 20260506182558 | 10 | 0 | 0.0 | 0.0 | 0.00 | 0.00 | 0.00 | 10 | 984.7 |
| 20260506182054 | 10 | 0 | 0.0 | 0.0 | 0.00 | 0.00 | 0.00 | 10 | 984.5 |
| 20260506181552 | 10 | 0 | 0.0 | 0.0 | 0.00 | 0.00 | 0.00 | 10 | 984.4 |
| 20260506181046 | 10 | 0 | 0.0 | 0.0 | 0.00 | 0.00 | 0.00 | 10 | 984.4 |
| 20260506180542 | 10 | 0 | 0.0 | 0.0 | 0.00 | 0.00 | 0.00 | 10 | 984.5 |
| 20260506180038 | 10 | 0 | 0.0 | 0.0 | 0.00 | 0.00 | 0.00 | 10 | 984.4 |
| 20260506175534 | 11 | 0 | 0.0 | 0.0 | 0.00 | 0.00 | 0.00 | 10 | 984.2 |
| 20260506175032 | 11 | 0 | 0.0 | 0.0 | 0.00 | 0.00 | 0.00 | 10 | 984.3 |
| 20260506174526 | 11 | 0 | 0.0 | 0.0 | 0.00 | 0.00 | 0.00 | 10 | 984.3 |
| 20260506174022 | 11 | 0 | 0.0 | 0.0 | 0.00 | 0.00 | 0.00 | 10 | 984.1 |
| 20260506173518 | 11 | 0 | 0.0 | 0.0 | 0.00 | 0.00 | 0.00 | 10 | 984.0 |
| 20260506173014 | 11 | 0 | 0.0 | 0.0 | 0.00 | 0.00 | 0.00 | 10 | 983.9 |
| 20260506172512 | 11 | 0 | 0.0 | 0.0 | 0.00 | 0.00 | 0.00 | 10 | 983.9 |
| 20260506172006 | 11 | 0 | 0.0 | 0.0 | 0.00 | 0.00 | 0.00 | 10 | 983.7 |
| 20260506171503 | 11 | 0 | 0.0 | 0.0 | 0.00 | 0.00 | 0.00 | 10 | 983.6 |
| 20260506170959 | 11 | 0 | 0.0 | 0.0 | 0.00 | 0.00 | 0.00 | 10 | 983.6 |
| 20260506170455 | 11 | 0 | 0.0 | 0.0 | 0.00 | 0.00 | 0.00 | 10 | 983.7 |
| 20260506165952 | 11 | 0 | 0.0 | 0.0 | 0.00 | 0.00 | 0.00 | 10 | 983.7 |
| 20260506165447 | 11 | 0 | 0.0 | 0.0 | 0.00 | 0.00 | 0.00 | 10 | 983.7 |
| 20260506164943 | 11 | 0 | 0.0 | 0.0 | 0.00 | 0.00 | 0.00 | 10 | 983.8 |
| 20260506164439 | 11 | 0 | 0.0 | 0.0 | 0.00 | 0.00 | 0.00 | 10 | 983.7 |
| 20260506163432 | 11 | 0 | 0.0 | 0.0 | 0.00 | 0.00 | 0.00 | 10 | 983.7 |
| 20260506162927 | 11 | 0 | 0.0 | 0.0 | 0.00 | 0.00 | 0.00 | 10 | 983.8 |
| 20260506162423 | 10 | 0 | 0.0 | 0.0 | 0.00 | 0.00 | 0.00 | 10 | 983.7 |
| 20260506161919 | 11 | 0 | 0.0 | 0.0 | 0.00 | 0.00 | 0.00 | 10 | 983.7 |
| 20260506161415 | 11 | 0 | 0.0 | 0.0 | 0.00 | 0.00 | 0.00 | 10 | 983.5 |
| 20260506160912 | 11 | 0 | 0.0 | 0.0 | 0.00 | 0.00 | 0.00 | 10 | 983.5 |
| 20260506160407 | 11 | 0 | 0.0 | 0.0 | 0.00 | 0.00 | 0.00 | 10 | 983.4 |
| 20260506155903 | 11 | 0 | 0.0 | 0.0 | 0.00 | 0.00 | 0.00 | 10 | 983.2 |
| 20260506155359 | 11 | 0 | 0.0 | 0.0 | 0.00 | 0.00 | 0.00 | 10 | 983.2 |
| 20260506154352 | 11 | 0 | 0.0 | 0.0 | 0.00 | 0.00 | 0.00 | 10 | 982.9 |
| 20260506153847 | 12 | 0 | 0.0 | 0.0 | 0.00 | 0.00 | 0.00 | 10 | 982.9 |
| 20260506153343 | 12 | 0 | 0.0 | 0.0 | 0.00 | 0.00 | 0.00 | 10 | 982.6 |
| 20260506152839 | 12 | 0 | 0.0 | 0.0 | 0.00 | 0.00 | 0.00 | 10 | 982.2 |
| 20260506152335 | 13 | 0 | 0.0 | 0.0 | 0.00 | 0.00 | 0.00 | 10 | 982.1 |
| 20260506151832 | 13 | 0 | 0.0 | 0.0 | 0.00 | 0.00 | 0.00 | 10 | 982.0 |
| 20260506151327 | 13 | 0 | 0.0 | 0.0 | 0.00 | 0.00 | 0.00 | 10 | 981.9 |
| 20260506150823 | 14 | 0 | 0.0 | 0.0 | 0.00 | 0.00 | 0.00 | 10 | 981.7 |
| 20260506150319 | 15 | 0 | 0.0 | 0.0 | 0.00 | 0.00 | 0.00 | 10 | 981.6 |
| 20260506145312 | 16 | 0 | 0.0 | 0.0 | 0.00 | 0.00 | 0.00 | 10 | 981.7 |
| 20260506144807 | 18 | 0 | 0.0 | 0.0 | 0.00 | 0.00 | 0.00 | 96 | 981.6 |
| 20260506144303 | 18 | 0 | 0.0 | 0.0 | 0.00 | 0.00 | 0.00 | 98 | 981.5 |
| 20260506143759 | 18 | 0 | 0.0 | 0.0 | 0.00 | 0.00 | 0.00 | 95 | 981.5 |
| 20260506143255 | 18 | 0 | 0.0 | 0.0 | 0.00 | 0.00 | 0.00 | 10 | 981.6 |
| 20260506142752 | 18 | 0 | 0.0 | 0.0 | 0.00 | 0.00 | 0.00 | 92 | 981.6 |
| 20260506142247 | 18 | 0 | 0.0 | 0.0 | 0.00 | 0.00 | 0.00 | 97 | 981.6 |
| 20260506141743 | 18 | 0 | 0.0 | 0.0 | 0.00 | 0.00 | 0.00 | 95 | 981.5 |
| 20260506141239 | 18 | 0 | 0.0 | 0.0 | 0.00 | 0.00 | 0.00 | 97 | 981.5 |
| 20260506140735 | 18 | 0 | 0.0 | 0.0 | 0.00 | 0.00 | 0.00 | 90 | 981.4 |
| 20260506140232 | 19 | 0 | 0.0 | 0.0 | 0.00 | 0.00 | 0.00 | 92 | 981.4 |